Time,TemperatureF,DewpointF,PressureIn,WindDirection,WindDirectionDegrees,WindSpeedMPH,WindSpeedGustMPH,Humidity,HourlyPrecipIn,Conditions,Clouds,dailyrainin,SoftwareType,DateUTC
2013-03-03 00:13:00,62.8,32.0,30.00,SSW,194,0.0,1.0,31,0.00,,,0.00,weatherlink.com 1.10,2013-03-03 08:13:00,
2013-03-03 00:28:00,63.5,32.0,29.99,NNE,16,1.0,2.0,31,0.00,,,0.00,weatherlink.com 1.10,2013-03-03 08:28:00,
2013-03-03 00:43:00,62.6,33.0,29.99,NNE,13,0.0,1.0,33,0.00,,,0.00,weatherlink.com 1.10,2013-03-03 08:43:00,
2013-03-03 00:58:00,62.7,34.0,29.99,North,5,2.0,2.0,34,0.00,,,0.00,weatherlink.com 1.10,2013-03-03 08:58:00,
2013-03-03 01:13:00,62.4,34.0,29.99,ESE,103,0.0,2.0,35,0.00,,,0.00,weatherlink.com 1.10,2013-03-03 09:13:00,
2013-03-03 01:28:00,62.4,33.0,29.98,ESE,122,1.0,1.0,33,0.00,,,0.00,weatherlink.com 1.10,2013-03-03 09:28:00,
2013-03-03 01:43:00,63.0,34.0,29.98,ESE,123,1.0,1.0,34,0.00,,,0.00,weatherlink.com 1.10,2013-03-03 09:43:00,
2013-03-03 01:58:00,61.6,33.0,29.98,SE,143,0.0,3.0,34,0.00,,,0.00,weatherlink.com 1.10,2013-03-03 09:58:00,
2013-03-03 02:14:00,61.1,32.0,29.97,SE,124,0.0,2.0,34,0.00,,,0.00,weatherlink.com 1.10,2013-03-03 10:14:00,
2013-03-03 02:29:00,61.0,32.0,29.97,WSW,255,0.0,1.0,34,0.00,,,0.00,weatherlink.com 1.10,2013-03-03 10:29:00,
2013-03-03 02:44:00,61.8,30.0,29.96,South,177,0.0,3.0,30,0.00,,,0.00,weatherlink.com 1.10,2013-03-03 10:44:00,
2013-03-03 02:59:00,62.8,30.0,29.96,SSE,153,1.0,2.0,29,0.00,,,0.00,weatherlink.com 1.10,2013-03-03 10:59:00,
2013-03-03 03:14:00,64.2,28.0,29.96,NW,307,0.0,2.0,26,0.00,,,0.00,weatherlink.com 1.10,2013-03-03 11:14:00,
2013-03-03 03:29:00,63.3,29.0,29.96,NW,305,0.0,1.0,27,0.00,,,0.00,weatherlink.com 1.10,2013-03-03 11:29:00,
2013-03-03 03:44:00,62.4,30.0,29.95,East,97,0.0,2.0,30,0.00,,,0.00,weatherlink.com 1.10,2013-03-03 11:44:00,
2013-03-03 03:59:00,64.6,27.0,29.96,WSW,256,0.0,1.0,24,0.00,,,0.00,weatherlink.com 1.10,2013-03-03 11:59:00,
2013-03-03 04:14:00,63.6,28.0,29.97,South,181,0.0,1.0,26,0.00,,,0.00,weatherlink.com 1.10,2013-03-03 12:14:00,
2013-03-03 04:29:00,63.4,28.0,29.97,South,181,0.0,1.0,26,0.00,,,0.00,weatherlink.com 1.10,2013-03-03 12:29:00,
2013-03-03 04:44:00,63.2,30.0,29.96,SW,226,0.0,1.0,29,0.00,,,0.00,weatherlink.com 1.10,2013-03-03 12:44:00,
2013-03-03 04:59:00,62.5,30.0,29.95,SE,131,0.0,1.0,29,0.00,,,0.00,weatherlink.com 1.10,2013-03-03 12:59:00,
2013-03-03 05:14:00,63.4,30.0,29.93,NW,319,0.0,3.0,29,0.00,,,0.00,weatherlink.com 1.10,2013-03-03 13:14:00,
2013-03-03 05:29:00,63.8,32.0,29.93,NNE,25,0.0,2.0,30,0.00,,,0.00,weatherlink.com 1.10,2013-03-03 13:29:00,
2013-03-03 05:44:00,63.2,31.0,29.94,SW,221,1.0,2.0,30,0.00,,,0.00,weatherlink.com 1.10,2013-03-03 13:44:00,
2013-03-03 05:59:00,62.8,32.0,29.93,West,269,1.0,2.0,31,0.00,,,0.00,weatherlink.com 1.10,2013-03-03 13:59:00,
2013-03-03 06:14:00,64.5,32.0,29.93,ESE,118,0.0,3.0,30,0.00,,,0.00,weatherlink.com 1.10,2013-03-03 14:14:00,
2013-03-03 06:29:00,64.1,30.0,29.94,SE,131,0.0,2.0,28,0.00,,,0.00,weatherlink.com 1.10,2013-03-03 14:29:00,
2013-03-03 06:44:00,65.4,27.0,29.94,NW,305,0.0,1.0,23,0.00,,,0.00,weatherlink.com 1.10,2013-03-03 14:44:00,
2013-03-03 06:59:00,64.5,31.0,29.96,NE,53,1.0,3.0,28,0.00,,,0.00,weatherlink.com 1.10,2013-03-03 14:59:00,
2013-03-03 07:14:00,63.7,35.0,29.98,SE,127,0.0,5.0,34,0.00,,,0.00,weatherlink.com 1.10,2013-03-03 15:14:00,
2013-03-03 07:29:00,62.8,35.0,29.98,WNW,294,1.0,2.0,36,0.00,,,0.00,weatherlink.com 1.10,2013-03-03 15:29:00,
2013-03-03 07:44:00,62.2,35.0,29.98,NW,305,1.0,1.0,37,0.00,,,0.00,weatherlink.com 1.10,2013-03-03 15:44:00,
2013-03-03 07:59:00,61.9,36.0,29.98,SE,145,1.0,3.0,38,0.00,,,0.00,weatherlink.com 1.10,2013-03-03 15:59:00,
2013-03-03 08:14:00,61.5,37.0,29.98,SE,124,0.0,1.0,40,0.00,,,0.00,weatherlink.com 1.10,2013-03-03 16:14:00,
2013-03-03 08:29:00,61.2,37.0,29.98,SE,126,0.0,0.0,41,0.00,,,0.00,weatherlink.com 1.10,2013-03-03 16:29:00,
2013-03-03 08:44:00,61.9,38.0,29.97,East,101,2.0,3.0,41,0.00,,,0.00,weatherlink.com 1.10,2013-03-03 16:44:00,
2013-03-03 08:59:00,62.2,37.0,29.98,NNW,328,0.0,2.0,39,0.00,,,0.00,weatherlink.com 1.10,2013-03-03 16:59:00,
2013-03-03 09:14:00,62.6,38.0,29.98,SW,235,0.0,2.0,40,0.00,,,0.00,weatherlink.com 1.10,2013-03-03 17:14:00,
2013-03-03 09:29:00,64.1,40.0,29.97,SSE,152,1.0,1.0,41,0.00,,,0.00,weatherlink.com 1.10,2013-03-03 17:29:00,
2013-03-03 09:44:00,69.1,35.0,29.97,North,3,2.0,2.0,29,0.00,,,0.00,weatherlink.com 1.10,2013-03-03 17:44:00,
2013-03-03 09:59:00,71.9,36.0,29.96,NW,321,1.0,2.0,27,0.00,,,0.00,weatherlink.com 1.10,2013-03-03 17:59:00,
2013-03-03 10:14:00,74.5,34.0,29.96,NNE,25,0.0,3.0,23,0.00,,,0.00,weatherlink.com 1.10,2013-03-03 18:14:00,
2013-03-03 10:29:00,77.1,30.0,29.95,WSW,255,1.0,3.0,18,0.00,,,0.00,weatherlink.com 1.10,2013-03-03 18:29:00,
2013-03-03 10:44:00,78.7,32.0,29.95,East,81,1.0,3.0,18,0.00,,,0.00,weatherlink.com 1.10,2013-03-03 18:44:00,
2013-03-03 10:59:00,78.7,33.0,29.95,NW,312,0.0,6.0,19,0.00,,,0.00,weatherlink.com 1.10,2013-03-03 18:59:00,
2013-03-03 11:14:00,79.2,31.0,29.94,NE,53,2.0,4.0,17,0.00,,,0.00,weatherlink.com 1.10,2013-03-03 19:14:00,
2013-03-03 11:29:00,79.8,33.0,29.94,East,90,1.0,4.0,18,0.00,,,0.00,weatherlink.com 1.10,2013-03-03 19:29:00,
2013-03-03 11:45:00,82.0,32.0,29.93,SE,139,3.0,4.0,16,0.00,,,0.00,weatherlink.com 1.10,2013-03-03 19:45:00,
2013-03-03 12:00:00,81.8,34.0,29.91,West,277,2.0,6.0,18,0.00,,,0.00,weatherlink.com 1.10,2013-03-03 20:00:00,
2013-03-03 12:15:00,82.8,36.0,29.90,NW,318,4.0,5.0,19,0.00,,,0.00,weatherlink.com 1.10,2013-03-03 20:15:00,
2013-03-03 12:30:00,81.5,35.0,29.89,NW,313,1.0,12.0,19,0.00,,,0.00,weatherlink.com 1.10,2013-03-03 20:30:00,
2013-03-03 12:45:00,80.3,33.0,29.89,East,83,1.0,5.0,18,0.00,,,0.00,weatherlink.com 1.10,2013-03-03 20:45:00,
2013-03-03 13:00:00,80.6,33.0,29.88,NNW,336,5.0,9.0,18,0.00,,,0.00,weatherlink.com 1.10,2013-03-03 21:00:00,
2013-03-03 13:15:00,81.3,32.0,29.86,West,259,1.0,3.0,17,0.00,,,0.00,weatherlink.com 1.10,2013-03-03 21:15:00,
2013-03-03 13:30:00,84.6,34.0,29.84,East,82,3.0,3.0,16,0.00,,,0.00,weatherlink.com 1.10,2013-03-03 21:30:00,
2013-03-03 13:45:00,85.8,30.0,29.83,SE,146,1.0,8.0,13,0.00,,,0.00,weatherlink.com 1.10,2013-03-03 21:45:00,
2013-03-03 14:00:00,86.4,28.0,29.82,West,271,2.0,17.0,12,0.00,,,0.00,weatherlink.com 1.10,2013-03-03 22:00:00,
2013-03-03 14:15:00,86.4,21.0,29.82,NE,39,4.0,19.0,9,0.00,,,0.00,weatherlink.com 1.10,2013-03-03 22:15:00,
2013-03-03 14:30:00,85.9,21.0,29.82,WNW,300,5.0,20.0,9,0.00,,,0.00,weatherlink.com 1.10,2013-03-03 22:30:00,
2013-03-03 14:45:00,86.3,21.0,29.82,NNE,23,1.0,14.0,9,0.00,,,0.00,weatherlink.com 1.10,2013-03-03 22:45:00,
2013-03-03 15:00:00,85.3,23.0,29.83,SW,232,4.0,27.0,10,0.00,,,0.00,weatherlink.com 1.10,2013-03-03 23:00:00,
2013-03-03 15:15:00,85.6,18.0,29.82,West,270,6.0,10.0,8,0.00,,,0.00,weatherlink.com 1.10,2013-03-03 23:15:00,
2013-03-03 15:30:00,83.7,24.0,29.82,West,280,1.0,25.0,11,0.00,,,0.00,weatherlink.com 1.10,2013-03-03 23:30:00,
2013-03-03 15:45:00,82.5,29.0,29.81,NE,49,4.0,20.0,14,0.00,,,0.00,weatherlink.com 1.10,2013-03-03 23:45:00,
2013-03-03 16:00:00,81.8,33.0,29.79,NE,47,11.0,28.0,17,0.00,,,0.00,weatherlink.com 1.10,2013-03-04 00:00:00,
2013-03-03 16:15:00,81.4,35.0,29.80,South,176,15.0,16.0,19,0.00,,,0.00,weatherlink.com 1.10,2013-03-04 00:15:00,
2013-03-03 16:30:00,81.0,35.0,29.80,NE,44,6.0,15.0,19,0.00,,,0.00,weatherlink.com 1.10,2013-03-04 00:30:00,
2013-03-03 16:45:00,80.7,35.0,29.80,SSW,201,5.0,19.0,19,0.00,,,0.00,weatherlink.com 1.10,2013-03-04 00:45:00,
2013-03-03 17:00:00,80.4,36.0,29.80,North,5,3.0,13.0,20,0.00,,,0.00,weatherlink.com 1.10,2013-03-04 01:00:00,
2013-03-03 17:15:00,79.7,34.0,29.80,WSW,255,8.0,25.0,19,0.00,,,0.00,weatherlink.com 1.10,2013-03-04 01:15:00,
2013-03-03 17:30:00,79.0,33.0,29.80,East,91,5.0,13.0,19,0.00,,,0.00,weatherlink.com 1.10,2013-03-04 01:30:00,
2013-03-03 17:45:00,78.5,33.0,29.81,NW,316,0.0,7.0,19,0.00,,,0.00,weatherlink.com 1.10,2013-03-04 01:45:00,
2013-03-03 18:00:00,77.8,32.0,29.81,SE,137,4.0,7.0,19,0.00,,,0.00,weatherlink.com 1.10,2013-03-04 02:00:00,
2013-03-03 18:15:00,76.6,33.0,29.81,ESE,114,2.0,8.0,20,0.00,,,0.00,weatherlink.com 1.10,2013-03-04 02:15:00,
2013-03-03 18:30:00,75.8,32.0,29.82,NE,42,2.0,4.0,20,0.00,,,0.00,weatherlink.com 1.10,2013-03-04 02:30:00,
2013-03-03 18:45:00,75.2,31.0,29.83,ESE,112,2.0,7.0,20,0.00,,,0.00,weatherlink.com 1.10,2013-03-04 02:45:00,
2013-03-03 19:00:00,74.3,32.0,29.82,ENE,73,1.0,1.0,21,0.00,,,0.00,weatherlink.com 1.10,2013-03-04 03:00:00,
2013-03-03 19:15:00,73.9,32.0,29.83,East,101,1.0,4.0,21,0.00,,,0.00,weatherlink.com 1.10,2013-03-04 03:15:00,
2013-03-03 19:30:00,73.3,32.0,29.83,SSE,150,5.0,7.0,22,0.00,,,0.00,weatherlink.com 1.10,2013-03-04 03:30:00,
2013-03-03 19:45:00,72.9,32.0,29.83,South,180,4.0,8.0,22,0.00,,,0.00,weatherlink.com 1.10,2013-03-04 03:45:00,
2013-03-03 20:00:00,73.3,32.0,29.83,SW,215,4.0,13.0,22,0.00,,,0.00,weatherlink.com 1.10,2013-03-04 04:00:00,
2013-03-03 20:15:00,72.9,32.0,29.83,SSW,205,7.0,10.0,22,0.00,,,0.00,weatherlink.com 1.10,2013-03-04 04:15:00,
2013-03-03 20:30:00,72.9,32.0,29.83,West,259,2.0,11.0,22,0.00,,,0.00,weatherlink.com 1.10,2013-03-04 04:30:00,
2013-03-03 20:45:00,72.9,33.0,29.84,SE,124,3.0,4.0,23,0.00,,,0.00,weatherlink.com 1.10,2013-03-04 04:45:00,
2013-03-03 21:00:00,72.6,34.0,29.84,SE,134,4.0,13.0,24,0.00,,,0.00,weatherlink.com 1.10,2013-03-04 05:00:00,
2013-03-03 21:15:00,72.7,34.0,29.84,NNE,32,1.0,7.0,24,0.00,,,0.00,weatherlink.com 1.10,2013-03-04 05:15:00,
2013-03-03 21:30:00,72.2,33.0,29.85,WSW,238,3.0,16.0,24,0.00,,,0.00,weatherlink.com 1.10,2013-03-04 05:30:00,
2013-03-03 21:45:00,72.3,35.0,29.84,SSE,163,3.0,15.0,25,0.00,,,0.00,weatherlink.com 1.10,2013-03-04 05:45:00,
2013-03-03 22:00:00,70.6,36.0,29.84,NNE,17,3.0,8.0,28,0.00,,,0.00,weatherlink.com 1.10,2013-03-04 06:00:00,
2013-03-03 22:15:00,69.6,36.0,29.85,NNW,345,0.0,6.0,29,0.00,,,0.00,weatherlink.com 1.10,2013-03-04 06:15:00,
2013-03-03 22:31:00,67.9,37.0,29.85,SSE,167,2.0,3.0,32,0.00,,,0.00,weatherlink.com 1.10,2013-03-04 06:31:00,
2013-03-03 22:46:00,67.2,38.0,29.85,North,10,2.0,5.0,34,0.00,,,0.00,weatherlink.com 1.10,2013-03-04 06:46:00,
2013-03-03 23:01:00,66.8,37.0,29.85,NNW,332,0.0,3.0,34,0.00,,,0.00,weatherlink.com 1.10,2013-03-04 07:01:00,
2013-03-03 23:16:00,65.9,37.0,29.86,SE,139,1.0,3.0,35,0.00,,,0.00,weatherlink.com 1.10,2013-03-04 07:16:00,
2013-03-03 23:31:00,64.9,39.0,29.85,ESE,108,0.0,1.0,38,0.00,,,0.00,weatherlink.com 1.10,2013-03-04 07:31:00,
2013-03-03 23:46:00,64.0,38.0,29.85,SE,145,0.0,2.0,38,0.00,,,0.00,weatherlink.com 1.10,2013-03-04 07:46:00,